Time,TemperatureF,DewpointF,PressureIn,WindDirection,WindDirectionDegrees,WindSpeedMPH,WindSpeedGustMPH,Humidity,HourlyPrecipIn,Conditions,Clouds,dailyrainin,SoftwareType,DateUTC
2013-03-09 00:02:00,32.0,27.0,30.36,ESE,117,1.0,3.0,80,0.00,,,0.00,,2013-03-09 05:02:00,
2013-03-09 00:12:00,32.0,27.0,30.36,ESE,117,1.0,3.0,80,0.00,,,0.00,,2013-03-09 05:12:00,
2013-03-09 00:22:00,32.0,27.0,30.35,South,181,1.0,2.0,80,0.00,,,0.00,,2013-03-09 05:22:00,
2013-03-09 00:31:00,32.0,27.0,30.35,SE,133,0.0,3.0,80,0.00,,,0.00,,2013-03-09 05:31:00,
2013-03-09 00:42:00,32.0,27.0,30.35,SE,133,0.0,3.0,80,0.00,,,0.00,,2013-03-09 05:42:00,
2013-03-09 00:53:00,32.0,26.0,30.34,SE,128,2.0,5.0,78,0.00,,,0.00,,2013-03-09 05:53:00,
2013-03-09 01:01:00,32.0,26.0,30.34,ESE,122,2.0,6.0,78,0.00,,,0.00,,2013-03-09 06:01:00,
2013-03-09 01:11:00,32.0,26.0,30.33,SE,142,2.0,7.0,79,0.00,,,0.00,,2013-03-09 06:11:00,
2013-03-09 01:22:00,32.0,26.0,30.33,SE,142,2.0,7.0,79,0.00,,,0.00,,2013-03-09 06:22:00,
2013-03-09 01:31:00,32.0,26.0,30.32,SE,129,0.0,4.0,79,0.00,,,0.00,,2013-03-09 06:31:00,
2013-03-09 01:42:00,32.0,26.0,30.32,SE,129,0.0,4.0,79,0.00,,,0.00,,2013-03-09 06:42:00,
2013-03-09 01:52:00,31.0,26.0,30.32,SE,145,1.0,4.0,80,0.00,,,0.00,,2013-03-09 06:52:00,
2013-03-09 02:01:00,31.0,26.0,30.32,SE,145,1.0,4.0,80,0.00,,,0.00,,2013-03-09 07:01:00,
2013-03-09 02:11:00,31.0,26.0,30.32,SE,145,1.0,4.0,80,0.00,,,0.00,,2013-03-09 07:11:00,
2013-03-09 02:21:00,31.0,26.0,30.31,ESE,122,2.0,6.0,82,0.00,,,0.00,,2013-03-09 07:21:00,
2013-03-09 02:32:00,31.0,26.0,30.32,SSE,159,2.0,5.0,82,0.00,,,0.00,,2013-03-09 07:32:00,
2013-03-09 02:42:00,31.0,26.0,30.32,SSE,159,2.0,5.0,82,0.00,,,0.00,,2013-03-09 07:42:00,
2013-03-09 02:52:00,31.0,26.0,30.31,SSE,153,1.0,4.0,82,0.00,,,0.00,,2013-03-09 07:52:00,
2013-03-09 03:01:00,31.0,26.0,30.31,SE,137,1.0,4.0,81,0.00,,,0.00,,2013-03-09 08:01:00,
2013-03-09 03:11:00,31.0,26.0,30.31,SE,137,1.0,4.0,81,0.00,,,0.00,,2013-03-09 08:11:00,
2013-03-09 03:22:00,31.0,26.0,30.30,SE,141,1.0,3.0,82,0.00,,,0.00,,2013-03-09 08:22:00,
2013-03-09 03:31:00,31.0,26.0,30.30,SE,141,2.0,5.0,82,0.00,,,0.00,,2013-03-09 08:31:00,
2013-03-09 03:41:00,31.0,26.0,30.30,SE,141,2.0,5.0,82,0.00,,,0.00,,2013-03-09 08:41:00,
2013-03-09 03:52:00,31.0,26.0,30.29,SE,127,1.0,5.0,82,0.00,,,0.00,,2013-03-09 08:52:00,
2013-03-09 04:01:00,31.0,26.0,30.28,SSE,162,1.0,4.0,83,0.00,,,0.00,,2013-03-09 09:01:00,
2013-03-09 04:12:00,31.0,26.0,30.28,SSE,162,1.0,4.0,83,0.00,,,0.00,,2013-03-09 09:12:00,
2013-03-09 04:21:00,31.0,26.0,30.27,SSE,149,2.0,5.0,83,0.00,,,0.00,,2013-03-09 09:21:00,
2013-03-09 04:31:00,32.0,27.0,30.27,SSE,155,3.0,7.0,81,0.00,,,0.00,,2013-03-09 09:31:00,
2013-03-09 04:41:00,32.0,27.0,30.27,SSE,155,3.0,7.0,81,0.00,,,0.00,,2013-03-09 09:41:00,
2013-03-09 04:52:00,33.0,28.0,30.26,ESE,114,3.0,8.0,80,0.00,,,0.00,,2013-03-09 09:52:00,
2013-03-09 05:01:00,33.0,28.0,30.26,ESE,114,3.0,8.0,80,0.00,,,0.00,,2013-03-09 10:01:00,
2013-03-09 05:11:00,33.0,28.0,30.26,ESE,114,3.0,8.0,80,0.00,,,0.00,,2013-03-09 10:11:00,
2013-03-09 08:02:00,35.0,30.0,30.25,SSE,163,5.0,11.0,81,0.00,,,0.00,,2013-03-09 13:02:00,
2013-03-09 08:11:00,35.0,30.0,30.25,SSE,163,5.0,11.0,81,0.00,,,0.00,,2013-03-09 13:11:00,
2013-03-09 08:21:00,35.0,29.0,30.25,SSE,149,2.0,8.0,80,0.00,,,0.00,,2013-03-09 13:21:00,
2013-03-09 08:32:00,36.0,30.0,30.25,SSE,150,4.0,7.0,80,0.00,,,0.00,,2013-03-09 13:32:00,
2013-03-09 08:42:00,36.0,30.0,30.25,SSE,150,4.0,7.0,80,0.00,,,0.00,,2013-03-09 13:42:00,
2013-03-09 08:52:00,36.0,30.0,30.26,SSE,155,5.0,9.0,78,0.00,,,0.00,,2013-03-09 13:52:00,
2013-03-09 09:01:00,36.0,30.0,30.25,SE,128,2.0,8.0,78,0.00,,,0.00,,2013-03-09 14:01:00,
2013-03-09 09:11:00,36.0,30.0,30.25,SE,128,2.0,8.0,78,0.00,,,0.00,,2013-03-09 14:11:00,
2013-03-09 09:21:00,37.0,30.0,30.26,SSE,148,4.0,11.0,76,0.00,,,0.00,,2013-03-09 14:21:00,
2013-03-09 09:31:00,37.0,30.0,30.26,SW,219,4.0,7.0,76,0.00,,,0.00,,2013-03-09 14:31:00,
2013-03-09 09:42:00,37.0,30.0,30.26,SW,219,4.0,7.0,76,0.00,,,0.00,,2013-03-09 14:42:00,
2013-03-09 09:52:00,38.0,30.0,30.26,SE,142,1.0,8.0,73,0.00,,,0.00,,2013-03-09 14:52:00,
2013-03-09 10:01:00,39.0,30.0,30.25,SSE,149,4.0,8.0,71,0.00,,,0.00,,2013-03-09 15:01:00,
2013-03-09 10:11:00,39.0,30.0,30.25,SSE,149,4.0,8.0,71,0.00,,,0.00,,2013-03-09 15:11:00,
2013-03-09 10:22:00,39.0,30.0,30.25,SSE,151,4.0,7.0,71,0.00,,,0.00,,2013-03-09 15:22:00,
2013-03-09 10:31:00,40.0,32.0,30.25,SSE,152,3.0,6.0,72,0.00,,,0.00,,2013-03-09 15:31:00,
2013-03-09 10:42:00,40.0,32.0,30.25,SSE,152,3.0,6.0,72,0.00,,,0.00,,2013-03-09 15:42:00,
2013-03-09 10:52:00,40.0,31.0,30.23,ESE,120,4.0,6.0,71,0.00,,,0.00,,2013-03-09 15:52:00,
2013-03-09 11:01:00,40.0,32.0,30.22,SSE,150,4.0,11.0,72,0.00,,,0.00,,2013-03-09 16:01:00,
2013-03-09 11:11:00,40.0,32.0,30.22,SSE,150,4.0,11.0,72,0.00,,,0.00,,2013-03-09 16:11:00,
2013-03-09 11:21:00,40.0,32.0,30.22,SSE,160,4.0,13.0,72,0.00,,,0.00,,2013-03-09 16:21:00,
2013-03-09 11:32:00,40.0,31.0,30.22,South,180,4.0,10.0,71,0.00,,,0.00,,2013-03-09 16:32:00,
2013-03-09 11:41:00,40.0,31.0,30.22,South,180,4.0,10.0,71,0.00,,,0.00,,2013-03-09 16:41:00,
2013-03-09 11:52:00,41.0,32.0,30.20,South,191,5.0,13.0,70,0.00,,,0.00,,2013-03-09 16:52:00,
2013-03-09 12:01:00,41.0,32.0,30.19,SSE,150,4.0,11.0,70,0.00,,,0.00,,2013-03-09 17:01:00,
2013-03-09 12:11:00,41.0,32.0,30.19,SSE,150,4.0,11.0,70,0.00,,,0.00,,2013-03-09 17:11:00,
2013-03-09 12:22:00,41.0,32.0,30.19,SSE,160,5.0,12.0,70,0.00,,,0.00,,2013-03-09 17:22:00,
2013-03-09 12:32:00,42.0,33.0,30.18,SSW,193,6.0,15.0,69,0.00,,,0.00,,2013-03-09 17:32:00,
2013-03-09 12:42:00,42.0,33.0,30.18,SSW,193,6.0,15.0,69,0.00,,,0.00,,2013-03-09 17:42:00,
2013-03-09 12:52:00,43.0,33.0,30.18,South,190,7.0,12.0,68,0.00,,,0.00,,2013-03-09 17:52:00,
2013-03-09 13:01:00,43.0,33.0,30.17,SE,143,5.0,14.0,67,0.00,,,0.00,,2013-03-09 18:01:00,
2013-03-09 13:11:00,43.0,33.0,30.17,SE,143,5.0,14.0,67,0.00,,,0.00,,2013-03-09 18:11:00,
2013-03-09 13:21:00,45.0,34.0,30.17,South,169,5.0,9.0,65,0.00,,,0.00,,2013-03-09 18:21:00,
2013-03-09 13:31:00,45.0,34.0,30.16,SSE,162,6.0,13.0,65,0.00,,,0.00,,2013-03-09 18:31:00,
2013-03-09 13:42:00,45.0,34.0,30.16,SSE,162,6.0,13.0,65,0.00,,,0.00,,2013-03-09 18:42:00,
2013-03-09 13:52:00,45.0,34.0,30.14,SSE,162,5.0,13.0,65,0.00,,,0.00,,2013-03-09 18:52:00,
2013-03-09 14:01:00,45.0,34.0,30.13,SE,124,5.0,14.0,66,0.00,,,0.00,,2013-03-09 19:01:00,
2013-03-09 14:11:00,45.0,34.0,30.13,SE,124,5.0,14.0,66,0.00,,,0.00,,2013-03-09 19:11:00,
2013-03-09 14:22:00,45.0,35.0,30.12,SE,132,5.0,10.0,69,0.00,,,0.00,,2013-03-09 19:22:00,
2013-03-09 14:32:00,45.0,36.0,30.11,South,190,4.0,11.0,70,0.00,,,0.00,,2013-03-09 19:32:00,
2013-03-09 14:42:00,45.0,36.0,30.11,South,190,4.0,11.0,70,0.00,,,0.00,,2013-03-09 19:42:00,
2013-03-09 14:52:00,45.0,37.0,30.10,SSE,154,4.0,10.0,72,0.00,,,0.00,,2013-03-09 19:52:00,
2013-03-09 15:01:00,45.0,37.0,30.09,SSE,165,4.0,11.0,72,0.00,,,0.00,,2013-03-09 20:01:00,
2013-03-09 15:11:00,45.0,37.0,30.09,SSE,165,4.0,11.0,72,0.00,,,0.00,,2013-03-09 20:11:00,
2013-03-09 15:21:00,46.0,37.0,30.07,SSE,156,4.0,10.0,71,0.00,,,0.00,,2013-03-09 20:21:00,
2013-03-09 15:32:00,46.0,37.0,30.07,South,181,4.0,9.0,70,0.00,,,0.00,,2013-03-09 20:32:00,
2013-03-09 15:42:00,46.0,37.0,30.07,South,181,4.0,9.0,70,0.00,,,0.00,,2013-03-09 20:42:00,
2013-03-09 15:52:00,46.0,37.0,30.05,SE,143,6.0,10.0,72,0.00,,,0.00,,2013-03-09 20:52:00,
2013-03-09 16:02:00,46.0,38.0,30.06,South,191,6.0,10.0,73,0.00,,,0.00,,2013-03-09 21:02:00,
2013-03-09 16:12:00,46.0,38.0,30.06,South,191,6.0,10.0,73,0.00,,,0.00,,2013-03-09 21:12:00,
2013-03-09 16:21:00,45.0,38.0,30.06,SSE,163,3.0,7.0,76,0.01,,,0.01,,2013-03-09 21:21:00,
2013-03-09 16:32:00,45.0,39.0,30.05,East,82,2.0,6.0,78,0.02,,,0.02,,2013-03-09 21:32:00,
2013-03-09 16:42:00,45.0,39.0,30.05,East,82,2.0,6.0,78,0.02,,,0.02,,2013-03-09 21:42:00,
2013-03-09 16:52:00,44.0,39.0,30.04,ESE,108,0.0,3.0,83,0.03,,,0.03,,2013-03-09 21:52:00,
2013-03-09 17:01:00,44.0,40.0,30.04,SE,141,0.0,1.0,85,0.04,,,0.04,,2013-03-09 22:01:00,
2013-03-09 17:11:00,44.0,40.0,30.04,SE,141,0.0,1.0,85,0.04,,,0.04,,2013-03-09 22:11:00,
2013-03-09 17:21:00,44.0,39.0,30.03,SSE,153,2.0,5.0,84,0.03,,,0.04,,2013-03-09 22:21:00,
2013-03-09 17:32:00,44.0,39.0,30.02,ESE,119,2.0,4.0,83,0.02,,,0.04,,2013-03-09 22:32:00,
2013-03-09 17:41:00,44.0,39.0,30.02,ESE,119,2.0,4.0,83,0.02,,,0.04,,2013-03-09 22:41:00,
2013-03-09 17:52:00,44.0,39.0,30.02,SSE,147,1.0,4.0,82,0.01,,,0.04,,2013-03-09 22:52:00,
2013-03-09 18:01:00,45.0,40.0,30.01,SE,136,2.0,4.0,82,0.00,,,0.04,,2013-03-09 23:01:00,
2013-03-09 18:11:00,45.0,40.0,30.01,SE,136,2.0,4.0,82,0.00,,,0.04,,2013-03-09 23:11:00,
2013-03-09 18:21:00,45.0,39.0,30.00,SSE,152,2.0,7.0,80,0.00,,,0.04,,2013-03-09 23:21:00,
2013-03-09 18:32:00,45.0,39.0,30.00,East,96,2.0,6.0,79,0.00,,,0.04,,2013-03-09 23:32:00,
2013-03-09 18:41:00,45.0,39.0,30.00,East,96,2.0,6.0,79,0.00,,,0.04,,2013-03-09 23:41:00,
2013-03-09 18:52:00,44.0,38.0,30.00,SE,138,0.0,2.0,79,0.00,,,0.04,,2013-03-09 23:52:00,
2013-03-09 19:01:00,44.0,38.0,30.00,SE,143,0.0,2.0,79,0.00,,,0.04,,2013-03-10 00:01:00,
2013-03-09 19:11:00,44.0,38.0,30.00,SE,143,0.0,2.0,79,0.00,,,0.04,,2013-03-10 00:11:00,
2013-03-09 19:22:00,44.0,38.0,29.99,ESE,115,3.0,7.0,78,0.00,,,0.04,,2013-03-10 00:22:00,
2013-03-09 19:32:00,44.0,37.0,29.99,SE,139,2.0,7.0,76,0.00,,,0.04,,2013-03-10 00:32:00,
2013-03-09 19:42:00,44.0,37.0,29.99,SE,139,2.0,7.0,76,0.00,,,0.04,,2013-03-10 00:42:00,
2013-03-09 19:52:00,45.0,37.0,29.98,SSE,155,5.0,9.0,74,0.00,,,0.04,,2013-03-10 00:52:00,
2013-03-09 20:01:00,45.0,37.0,29.98,SE,143,5.0,10.0,73,0.00,,,0.04,,2013-03-10 01:01:00,
2013-03-09 20:11:00,45.0,37.0,29.98,SE,143,5.0,10.0,73,0.00,,,0.04,,2013-03-10 01:11:00,
2013-03-09 20:21:00,46.0,37.0,29.97,SE,144,5.0,10.0,72,0.00,,,0.04,,2013-03-10 01:21:00,
2013-03-09 20:31:00,46.0,37.0,29.96,SSE,163,5.0,9.0,71,0.00,,,0.04,,2013-03-10 01:31:00,
2013-03-09 20:41:00,46.0,37.0,29.96,SSE,163,5.0,9.0,71,0.00,,,0.04,,2013-03-10 01:41:00,
2013-03-09 20:52:00,46.0,36.0,29.96,SSE,160,5.0,10.0,69,0.00,,,0.04,,2013-03-10 01:52:00,
2013-03-09 21:01:00,46.0,36.0,29.95,SE,136,5.0,10.0,69,0.00,,,0.04,,2013-03-10 02:01:00,
2013-03-09 21:11:00,46.0,36.0,29.95,SE,136,5.0,10.0,69,0.00,,,0.04,,2013-03-10 02:11:00,
2013-03-09 21:22:00,47.0,37.0,29.94,SSE,165,5.0,13.0,68,0.00,,,0.04,,2013-03-10 02:22:00,
2013-03-09 21:31:00,47.0,37.0,29.94,SE,133,5.0,11.0,68,0.00,,,0.04,,2013-03-10 02:31:00,
2013-03-09 21:42:00,47.0,37.0,29.94,SE,133,5.0,11.0,68,0.00,,,0.04,,2013-03-10 02:42:00,
2013-03-09 21:52:00,47.0,37.0,29.93,SSE,153,6.0,13.0,67,0.00,,,0.04,,2013-03-10 02:52:00,
2013-03-09 22:01:00,48.0,38.0,29.94,SE,138,5.0,11.0,67,0.00,,,0.04,,2013-03-10 03:01:00,
2013-03-09 22:11:00,48.0,37.0,29.94,SW,224,5.0,12.0,65,0.00,,,0.04,,2013-03-10 03:11:00,
2013-03-09 22:22:00,48.0,37.0,29.94,SW,224,5.0,12.0,65,0.00,,,0.04,,2013-03-10 03:22:00,
2013-03-09 22:32:00,48.0,37.0,29.94,SSE,163,5.0,11.0,65,0.00,,,0.04,,2013-03-10 03:32:00,
2013-03-09 22:42:00,48.0,37.0,29.94,SSE,163,5.0,11.0,65,0.00,,,0.04,,2013-03-10 03:42:00,
2013-03-09 22:52:00,48.0,36.0,29.94,SSW,199,5.0,7.0,64,0.00,,,0.04,,2013-03-10 03:52:00,
2013-03-09 23:01:00,48.0,36.0,29.94,SSE,148,3.0,8.0,64,0.00,,,0.04,,2013-03-10 04:01:00,
2013-03-09 23:11:00,48.0,36.0,29.94,SSE,148,3.0,8.0,64,0.00,,,0.04,,2013-03-10 04:11:00,
2013-03-09 23:21:00,48.0,36.0,29.94,SSW,198,3.0,9.0,64,0.00,,,0.04,,2013-03-10 04:21:00,
2013-03-09 23:31:00,48.0,36.0,29.94,SSW,198,3.0,9.0,64,0.00,,,0.04,,2013-03-10 04:31:00,
2013-03-09 23:41:00,48.0,36.0,29.94,SSW,198,3.0,9.0,64,0.00,,,0.04,,2013-03-10 04:41:00,
2013-03-09 23:51:00,48.0,37.0,29.92,South,187,3.0,8.0,65,0.00,,,0.04,,2013-03-10 04:51:00,